This demonstration page uses our WeatherBlox Daily Observations layout. Learn more.

Left ArrowRight Arrow

30.00354, -91.81873

Hourly Observations for July 19, 2022

Temp ( °F °C ) Dew Point ( °F °C ) Humidity (%) Winds ( mph kmh ) Pressure ( in mb ) Visibility ( mi km ) Precip ( " mm )
12:53 am 00:53 Clear 79 26 N/A N/A SSW 5 7 30.00 1016 N/A 0.00 0.00
1:53 am 01:53 Clear 79 26 N/A N/A SSW 5 7 29.98 1015 N/A 0.00 0.00
2:53 am 02:53 Clear 79 26 N/A N/A SSW 5 7 29.97 1015 N/A 0.00 0.00
3:53 am 03:53 Clear 79 26 N/A N/A SSW 5 7 29.97 1015 N/A 0.00 0.00
4:53 am 04:53 Clear 77 25 N/A N/A SW 3 6 29.97 1015 N/A 0.00 0.00
5:53 am 05:53 Mostly Clear 78 25.6 77 25 97 97 Calm 30.00 1016 10 16 0.00 0.00
6:53 am 06:53 Partly Cloudy 78 25.6 77 25 97 97 S 6 9 30.00 1016 10 16 0.00 0.00
7:53 am 07:53 Sunny 78 25.6 76 24.4 93 93 SW 7 11 30.01 1016 10 16 0.00 0.00
8:53 am 08:53 Sunny 83 28.3 79 26.1 88 88 SW 9 15 30.02 1017 10 16 0.00 0.00
9:53 am 09:53 Mostly Cloudy 86 30 77 25 75 75 SW 10 17 30.02 1017 10 16 0.00 0.00
10:53 am 10:53 Mostly Sunny 89 31.7 75 23.9 63 63 SW 9 15 30.02 1017 10 16 0.00 0.00
11:53 am 11:53 Mostly Cloudy 90 32.2 75 23.9 62 62 SSW 12 19 30.01 1016 10 16 0.00 0.00
12:53 pm 12:53 undefined 90 32.2 75 23.9 62 62 undefined N/A 30.01 1016 10 16 0.00 0.00
1:53 pm 13:53 Mostly Cloudy 91 32.8 75 23.9 59 59 SW 13 20 29.98 1015 10 16 0.00 0.00
2:53 pm 14:53 Mostly Cloudy 91 32.8 76 24.4 61 61 SSW 15 24 29.97 1015 10 16 0.00 0.00
3:53 pm 15:53 Mostly Cloudy 91 32.8 76 24.4 61 61 SSW 16 26 29.96 1014 10 16 0.00 0.00
4:53 pm 16:53 Mostly Sunny 91 32.8 73 22.8 56 56 SW 16 26 29.95 1014 10 16 0.00 0.00
5:53 pm 17:53 Mostly Sunny 89 31.7 76 24.4 65 65 SSW 17 28 29.95 1014 10 16 0.00 0.00
6:53 pm 18:53 Sunny 87 30.6 75 23.9 67 67 SSW 16 26 29.95 1014 10 16 0.00 0.00
7:53 pm 19:53 Sunny 85 29.4 75 23.9 72 72 SSW 12 19 29.95 1014 10 16 0.00 0.00
8:53 pm 20:53 Clear 82 27.8 75 23.9 79 79 SSW 7 11 29.96 1015 10 16 0.00 0.00
9:53 pm 21:53 Clear 81 27.2 75 23.9 82 82 SW 6 9 29.97 1015 10 16 0.00 0.00
10:53 pm 22:53 Clear 80 26.7 75 23.9 85 85 SSW 3 6 29.98 1015 10 16 0.00 0.00
11:53 pm 23:53 Clear 79 26.1 75 23.9 88 88 SSW 6 9 29.98 1015 10 16 0.00 0.00

Powered by AerisWeather